Location: Unspecified
(0.0000°N, 0.0000°E)
Time: 04:54:43
(UTC+00:00)

Vanguard 3 - Visible Passes

Search period start: 10 December 2016 00:00
Search period end: 20 December 2016 00:00
Orbit: 507 x 3267 km, 33.4° (Epoch: 09 December)

Date Brightness Start Highest point End Pass type
(mag) Time Alt. Az. Time Alt. Az. Time Alt. Az.
10 Dec 10.6 02:52:19 21° NNE 02:52:19 21° NNE 02:58:48 10° NNE visible
10 Dec 10.7 04:57:44 10° NW 05:06:46 17° N 05:17:22 10° NNE visible
11 Dec 10.5 03:47:42 18° NNW 03:48:34 18° N 03:58:46 10° NNE visible
12 Dec 10.8 02:38:25 15° NNE 02:38:25 15° NNE 02:41:34 10° NNE visible
12 Dec 10.7 04:43:46 10° NNW 04:51:49 15° N 05:01:12 10° NNE visible
13 Dec 10.7 03:33:41 15° N 03:33:41 15° N 03:41:37 10° NNE visible
14 Dec 10.8 04:29:43 10° NNW 04:36:53 14° N 04:45:12 10° NE visible
15 Dec 10.8 03:19:29 12° N 03:19:29 12° N 03:24:14 10° NNE visible
15 Dec 10.9 05:29:42 10° NNW 05:40:26 19° NNE 05:52:31 10° NE visible
16 Dec 10.8 04:15:28 10° NNW 04:21:57 13° NNE 04:29:27 10° NE visible
17 Dec 10.9 03:05:11 10° N 03:05:11 10° N 03:05:48 10° N visible
17 Dec 10.9 05:14:12 10° NNW 05:25:05 20° NNE 05:37:40 10° ENE visible
18 Dec 10.8 04:00:57 10° N 04:06:59 13° NNE 04:13:59 10° NE visible
18 Dec 8.9 20:02:58 10° S 20:03:29 12° S 20:03:29 12° S visible
19 Dec 10.8 04:58:36 10° NNW 05:09:37 21° NNE 05:22:45 10° ENE visible
